Hourly Weather Kudrowice

Today, 2 July, Thursday

Time Temperature Precipitation Wind Pressure Humidity
00:00 +20°C° 0.6 mm 3 mps 739 mmHg 89%
01:00 +19°C° 0 mm 3 mps 738 mmHg 91%
02:00 +19°C° 0.5 mm 3 mps 738 mmHg 91%
03:00 +19°C° 0.5 mm 3 mps 738 mmHg 92%
04:00 +19°C° 0.5 mm 3 mps 738 mmHg 93%
05:00 +20°C° 0 mm 3 mps 738 mmHg 90%
06:00 +21°C° 0 mm 4 mps 739 mmHg 87%
07:00 +22°C° 0 mm 4 mps 739 mmHg 84%
08:00 +23°C° 0.1 mm 4 mps 739 mmHg 79%
09:00 +25°C° 0.1 mm 4 mps 740 mmHg 73%
10:00 +26°C° 0.1 mm 4 mps 740 mmHg 68%
11:00 +26°C° 0 mm 4 mps 740 mmHg 65%
12:00 +26°C° 0 mm 4 mps 740 mmHg 63%
13:00 +27°C° 0 mm 4 mps 740 mmHg 60%
14:00 +27°C° 0.1 mm 3 mps 740 mmHg 61%
15:00 +26°C° 0.1 mm 3 mps 740 mmHg 62%
16:00 +26°C° 0.1 mm 3 mps 740 mmHg 63%
17:00 +25°C° 0 mm 2 mps 740 mmHg 67%
18:00 +25°C° 0 mm 2 mps 740 mmHg 71%
19:00 +24°C° 0 mm 1 mps 740 mmHg 75%
20:00 +23°C° 0.1 mm 1 mps 740 mmHg 77%
21:00 +22°C° 0.1 mm 1 mps 740 mmHg 79%
22:00 +21°C° 0.1 mm 1 mps 740 mmHg 81%
23:00 +21°C° 1.2 mm 1 mps 740 mmHg 84%

Tomorrow, 3 July, Friday

Time Temperature Precipitation Wind Pressure Humidity
00:00 +20°C° 1.2 mm 1 mps 740 mmHg 87%
01:00 +20°C° 1.2 mm 1 mps 740 mmHg 90%
02:00 +20°C° 1.2 mm 1 mps 740 mmHg 91%
03:00 +19°C° 1.2 mm 2 mps 740 mmHg 93%
04:00 +19°C° 1.2 mm 2 mps 739 mmHg 94%
05:00 +19°C° 1.1 mm 2 mps 740 mmHg 91%
06:00 +20°C° 1.1 mm 3 mps 740 mmHg 89%
07:00 +21°C° 1.1 mm 3 mps 740 mmHg 86%
08:00 +21°C° 0.5 mm 4 mps 741 mmHg 83%
09:00 +21°C° 0.5 mm 5 mps 741 mmHg 81%
10:00 +22°C° 0.5 mm 5 mps 742 mmHg 78%
11:00 +22°C° 0.1 mm 5 mps 742 mmHg 75%
12:00 +23°C° 0.1 mm 6 mps 742 mmHg 71%
13:00 +23°C° 0.1 mm 6 mps 742 mmHg 68%
14:00 +23°C° 0 mm 6 mps 742 mmHg 66%
15:00 +23°C° 0 mm 5 mps 742 mmHg 64%
16:00 +23°C° 0 mm 5 mps 742 mmHg 63%
17:00 +22°C° 0 mm 4 mps 742 mmHg 66%
18:00 +21°C° 0 mm 4 mps 743 mmHg 70%
19:00 +20°C° 0 mm 3 mps 743 mmHg 74%
20:00 +19°C° 0 mm 3 mps 743 mmHg 76%
21:00 +18°C° 0 mm 2 mps 744 mmHg 78%
22:00 +17°C° 0 mm 2 mps 744 mmHg 81%
23:00 +16°C° 0 mm 2 mps 744 mmHg 84%

Day after tomorrow, 4 July, Saturday

Time Temperature Precipitation Wind Pressure Humidity
00:00 +16°C° 0 mm 2 mps 744 mmHg 86%
01:00 +15°C° 0 mm 1 mps 745 mmHg 89%
02:00 +15°C° 0 mm 1 mps 745 mmHg 90%
03:00 +15°C° 0 mm 1 mps 745 mmHg 90%
04:00 +15°C° 0 mm 1 mps 745 mmHg 90%
05:00 +16°C° 0 mm 2 mps 745 mmHg 85%
06:00 +18°C° 0 mm 2 mps 745 mmHg 79%
07:00 +20°C° 0 mm 2 mps 745 mmHg 74%
08:00 +21°C° 0 mm 2 mps 746 mmHg 69%
09:00 +23°C° 0 mm 2 mps 746 mmHg 63%
10:00 +24°C° 0 mm 2 mps 746 mmHg 57%
11:00 +24°C° 0 mm 3 mps 745 mmHg 56%
12:00 +25°C° 0 mm 3 mps 745 mmHg 56%
13:00 +25°C° 0 mm 3 mps 745 mmHg 55%
14:00 +25°C° 0 mm 3 mps 745 mmHg 55%
15:00 +26°C° 0 mm 3 mps 745 mmHg 56%
16:00 +26°C° 0 mm 3 mps 744 mmHg 57%
17:00 +25°C° 0.1 mm 2 mps 744 mmHg 62%
18:00 +24°C° 0.1 mm 2 mps 744 mmHg 67%
19:00 +23°C° 0.1 mm 2 mps 744 mmHg 73%
20:00 +21°C° 0 mm 2 mps 744 mmHg 75%
21:00 +20°C° 0 mm 2 mps 745 mmHg 77%
22:00 +19°C° 0 mm 2 mps 745 mmHg 79%
23:00 +18°C° 0 mm 2 mps 745 mmHg 80%

5 July, Sunday

Time Temperature Precipitation Wind Pressure Humidity
00:00 +18°C° 0 mm 2 mps 745 mmHg 81%
01:00 +17°C° 0 mm 2 mps 744 mmHg 82%
02:00 +17°C° 0 mm 2 mps 744 mmHg 83%
03:00 +17°C° 0 mm 2 mps 744 mmHg 84%
04:00 +16°C° 0 mm 2 mps 744 mmHg 85%
05:00 +18°C° 0 mm 3 mps 744 mmHg 81%
06:00 +19°C° 0 mm 3 mps 744 mmHg 78%
07:00 +21°C° 0 mm 3 mps 744 mmHg 74%
08:00 +22°C° 0 mm 4 mps 744 mmHg 70%
09:00 +23°C° 0 mm 4 mps 744 mmHg 67%
10:00 +25°C° 0 mm 5 mps 744 mmHg 63%
11:00 +26°C° 0.2 mm 5 mps 744 mmHg 63%
12:00 +26°C° 0.2 mm 5 mps 743 mmHg 63%
13:00 +26°C° 0.2 mm 5 mps 743 mmHg 63%
14:00 +26°C° 0.1 mm 5 mps 743 mmHg 62%
15:00 +27°C° 0.1 mm 5 mps 742 mmHg 62%
16:00 +27°C° 0.1 mm 5 mps 742 mmHg 62%
17:00 +26°C° 0.3 mm 4 mps 742 mmHg 68%
18:00 +23°C° 0.3 mm 4 mps 742 mmHg 74%
19:00 +22°C° 0.3 mm 4 mps 742 mmHg 80%
20:00 +21°C° 0 mm 3 mps 742 mmHg 83%
21:00 +21°C° 0 mm 3 mps 742 mmHg 85%
22:00 +20°C° 0 mm 3 mps 742 mmHg 88%
23:00 +19°C° 0 mm 3 mps 742 mmHg 88%

6 July, Monday

Time Temperature Precipitation Wind Pressure Humidity
00:00 +19°C° 0 mm 4 mps 742 mmHg 89%
01:00 +19°C° 0 mm 4 mps 742 mmHg 89%
02:00 +19°C° 0 mm 4 mps 742 mmHg 89%
03:00 +18°C° 0 mm 4 mps 742 mmHg 89%
04:00 +18°C° 0 mm 4 mps 742 mmHg 89%
05:00 +19°C° 0 mm 4 mps 742 mmHg 86%
06:00 +20°C° 0 mm 5 mps 742 mmHg 83%
07:00 +21°C° 0 mm 5 mps 742 mmHg 80%
08:00 +22°C° 0 mm 5 mps 741 mmHg 75%
09:00 +25°C° 0 mm 5 mps 741 mmHg 70%
10:00 +26°C° 0 mm 6 mps 741 mmHg 66%
11:00 +26°C° 0.1 mm 6 mps 741 mmHg 66%
12:00 +26°C° 0.1 mm 6 mps 741 mmHg 65%
13:00 +26°C° 0.1 mm 6 mps 740 mmHg 65%
14:00 +26°C° 0.1 mm 5 mps 740 mmHg 66%
15:00 +26°C° 0.1 mm 5 mps 740 mmHg 67%
16:00 +26°C° 0.1 mm 4 mps 740 mmHg 68%
17:00 +25°C° 0.2 mm 4 mps 740 mmHg 72%
18:00 +24°C° 0.2 mm 3 mps 740 mmHg 77%
19:00 +23°C° 0.2 mm 2 mps 740 mmHg 81%
20:00 +21°C° 0.2 mm 3 mps 740 mmHg 82%
21:00 +20°C° 0.2 mm 3 mps 741 mmHg 84%
22:00 +19°C° 0.2 mm 4 mps 741 mmHg 85%
23:00 +18°C° 0.1 mm 3 mps 741 mmHg 82%

7 July, Tuesday

Time Temperature Precipitation Wind Pressure Humidity
00:00 +18°C° 0.1 mm 3 mps 742 mmHg 80%
01:00 +17°C° 0.1 mm 3 mps 742 mmHg 78%
02:00 +16°C° 0 mm 3 mps 742 mmHg 78%
03:00 +14°C° 0 mm 3 mps 743 mmHg 79%
04:00 +14°C° 0 mm 3 mps 743 mmHg 79%
05:00 +14°C° 0 mm 3 mps 743 mmHg 76%
06:00 +16°C° 0 mm 3 mps 744 mmHg 73%
07:00 +17°C° 0 mm 3 mps 744 mmHg 70%
08:00 +18°C° 0 mm 4 mps 744 mmHg 66%
09:00 +19°C° 0 mm 4 mps 744 mmHg 61%
10:00 +20°C° 0 mm 4 mps 744 mmHg 57%
11:00 +20°C° 0 mm 4 mps 744 mmHg 56%
12:00 +20°C° 0 mm 5 mps 744 mmHg 54%
13:00 +21°C° 0 mm 5 mps 744 mmHg 53%
14:00 +21°C° 0 mm 4 mps 744 mmHg 54%
15:00 +20°C° 0 mm 4 mps 744 mmHg 55%
16:00 +20°C° 0 mm 3 mps 744 mmHg 56%
17:00 +19°C° 0.1 mm 3 mps 744 mmHg 61%
18:00 +18°C° 0.1 mm 3 mps 744 mmHg 65%
19:00 +18°C° 0.1 mm 2 mps 744 mmHg 70%
20:00 +17°C° 0.1 mm 2 mps 745 mmHg 72%
21:00 +16°C° 0.1 mm 3 mps 745 mmHg 74%
22:00 +14°C° 0.1 mm 3 mps 746 mmHg 77%
23:00 +14°C° 0 mm 3 mps 746 mmHg 79%
Show more